| time (UTC) | temp F | wind direction | speed MPH | gust MPH | rain 1hr in | rain 24hr in | rain mn in | humidity % | barometer mb |
| 20260904051125 | 76 | 172 | 4.0 | 7.0 | 0.00 | 0.00 | 0.00 | 16 | 1014.0 |
| 20260904051040 | 76 | 180 | 3.0 | 7.0 | 0.00 | 0.00 | 0.00 | 15 | 1013.9 |
| 20260904045125 | 76 | 206 | 4.0 | 6.0 | 0.00 | 0.00 | 0.00 | 15 | 1013.8 |
| 20260904044124 | 76 | 196 | 6.0 | 9.0 | 0.00 | 0.00 | 0.00 | 16 | 1013.8 |
| 20260904040138 | 77 | 204 | 5.0 | 7.0 | 0.00 | 0.00 | 0.00 | 15 | 1013.5 |
| 20260904035138 | 77 | 219 | 7.0 | 13.0 | 0.00 | 0.00 | 0.00 | 15 | 1013.5 |
| 20260904034224 | 77 | 230 | 4.0 | 9.0 | 0.00 | 0.00 | 0.00 | 15 | 1013.5 |
| 20260904033322 | 78 | 204 | 6.0 | 8.0 | 0.00 | 0.00 | 0.00 | 15 | 1013.5 |
| 20260904031325 | 78 | 194 | 5.0 | 10.0 | 0.00 | 0.00 | 0.00 | 14 | 1013.2 |
| 20260904031222 | 78 | 221 | 7.0 | 11.0 | 0.00 | 0.00 | 0.00 | 14 | 1013.2 |
| 20260904024322 | 78 | 227 | 5.0 | 7.0 | 0.00 | 0.00 | 0.00 | 14 | 1013.2 |
| 20260904023324 | 78 | 230 | 6.0 | 10.0 | 0.00 | 0.00 | 0.00 | 15 | 1013.1 |
| 20260904022423 | 78 | 234 | 6.0 | 9.0 | 0.00 | 0.00 | 0.00 | 15 | 1013.1 |
| 20260904021424 | 79 | 227 | 5.0 | 9.0 | 0.00 | 0.00 | 0.00 | 14 | 1013.1 |
| 20260904020424 | 79 | 194 | 5.0 | 10.0 | 0.00 | 0.00 | 0.00 | 14 | 1012.9 |
| 20260904015524 | 79 | 223 | 5.0 | 7.0 | 0.00 | 0.00 | 0.00 | 15 | 1012.8 |
| 20260904014522 | 79 | 207 | 4.0 | 7.0 | 0.00 | 0.00 | 0.00 | 14 | 1012.9 |
| 20260904013524 | 80 | 221 | 6.0 | 13.0 | 0.00 | 0.00 | 0.00 | 14 | 1012.9 |
| 20260904011525 | 81 | 208 | 5.0 | 8.0 | 0.00 | 0.00 | 0.00 | 14 | 1012.9 |
| 20260904010523 | 82 | 220 | 8.0 | 16.0 | 0.00 | 0.00 | 0.00 | 14 | 1013.0 |
| 20260904003539 | 83 | 217 | 7.0 | 10.0 | 0.00 | 0.00 | 0.00 | 14 | 1013.3 |
| 20260904002523 | 84 | 220 | 8.0 | 14.0 | 0.00 | 0.00 | 0.00 | 13 | 1013.4 |
| 20260904000524 | 84 | 175 | 5.0 | 8.0 | 0.00 | 0.00 | 0.00 | 15 | 1013.3 |
| 20260903235623 | 83 | 155 | 4.0 | 8.0 | 0.00 | 0.00 | 0.00 | 14 | 1013.3 |
| 20260903233623 | 84 | 143 | 4.0 | 8.0 | 0.00 | 0.00 | 0.00 | 14 | 1013.3 |
| 20260903232623 | 83 | 155 | 5.0 | 9.0 | 0.00 | 0.00 | 0.00 | 14 | 1013.5 |
| 20260903231625 | 83 | 150 | 5.0 | 7.0 | 0.00 | 0.00 | 0.00 | 14 | 1013.5 |
| 20260903230723 | 83 | 173 | 3.0 | 11.0 | 0.00 | 0.00 | 0.00 | 15 | 1013.7 |
| 20260903224824 | 83 | 152 | 5.0 | 8.0 | 0.00 | 0.00 | 0.00 | 16 | 1013.9 |
| 20260903223824 | 83 | 157 | 8.0 | 14.0 | 0.00 | 0.00 | 0.00 | 16 | 1013.9 |
| 20260903222724 | 82 | 121 | 5.0 | 11.0 | 0.00 | 0.00 | 0.00 | 15 | 1014.4 |
| 20260903221726 | 83 | 139 | 8.0 | 15.0 | 0.00 | 0.00 | 0.00 | 15 | 1014.2 |
| 20260903215724 | 82 | 153 | 2.0 | 6.0 | 0.00 | 0.00 | 0.00 | 16 | 1014.7 |
| 20260903213822 | 82 | 184 | 8.0 | 13.0 | 0.00 | 0.00 | 0.00 | 17 | 1014.7 |
| 20260903212825 | 81 | 178 | 5.0 | 8.0 | 0.00 | 0.00 | 0.00 | 19 | 1015.0 |
| 20260903211824 | 81 | 144 | 4.0 | 9.0 | 0.00 | 0.00 | 0.00 | 18 | 1015.2 |
| 20260903210823 | 81 | 169 | 5.0 | 7.0 | 0.00 | 0.00 | 0.00 | 16 | 1015.3 |
| 20260903205823 | 81 | 122 | 7.0 | 15.0 | 0.00 | 0.00 | 0.00 | 15 | 1015.4 |
| 20260903204823 | 82 | 154 | 5.0 | 11.0 | 0.00 | 0.00 | 0.00 | 16 | 1015.5 |
| 20260903203825 | 82 | 166 | 6.0 | 9.0 | 0.00 | 0.00 | 0.00 | 15 | 1015.7 |
| 20260903200122 | 81 | 149 | 7.0 | 12.0 | 0.00 | 0.00 | 0.00 | 14 | 1016.3 |
| 20260903195125 | 81 | 199 | 6.0 | 9.0 | 0.00 | 0.00 | 0.00 | 15 | 1016.4 |
| 20260903194222 | 80 | 197 | 8.0 | 15.0 | 0.00 | 0.00 | 0.00 | 17 | 1016.5 |
| 20260903193224 | 79 | 210 | 5.0 | 14.0 | 0.00 | 0.00 | 0.00 | 20 | 1016.7 |
| 20260903192223 | 78 | 180 | 0.0 | 1.0 | 0.00 | 0.00 | 0.00 | 22 | 1017.1 |
| 20260903191224 | 78 | 146 | 6.0 | 12.0 | 0.00 | 0.00 | 0.00 | 19 | 1017.1 |
| 20260903185224 | 78 | 145 | 5.0 | 8.0 | 0.00 | 0.00 | 0.00 | 19 | 1017.3 |
| 20260903184322 | 77 | 168 | 4.0 | 7.0 | 0.00 | 0.00 | 0.00 | 20 | 1017.4 |
| 20260903183323 | 76 | 167 | 5.0 | 10.0 | 0.00 | 0.00 | 0.00 | 23 | 1017.4 |
| 20260903182324 | 76 | 125 | 8.0 | 15.0 | 0.00 | 0.00 | 0.00 | 20 | 1017.6 |
| 20260903180339 | 77 | 184 | 6.0 | 9.0 | 0.00 | 0.00 | 0.00 | 19 | 1018.2 |
| 20260903175423 | 77 | 155 | 7.0 | 11.0 | 0.00 | 0.00 | 0.00 | 19 | 1018.2 |
| 20260903174423 | 76 | 177 | 5.0 | 9.0 | 0.00 | 0.00 | 0.00 | 19 | 1018.2 |
| 20260903173423 | 75 | 156 | 8.0 | 12.0 | 0.00 | 0.00 | 0.00 | 21 | 1018.2 |
| 20260903170522 | 73 | 177 | 6.0 | 9.0 | 0.00 | 0.00 | 0.00 | 22 | 1018.5 |
| 20260903165524 | 73 | 158 | 6.0 | 10.0 | 0.00 | 0.00 | 0.00 | 20 | 1018.3 |
| 20260903164623 | 74 | 139 | 5.0 | 8.0 | 0.00 | 0.00 | 0.00 | 22 | 1018.3 |
| 20260903163638 | 73 | 126 | 5.0 | 9.0 | 0.00 | 0.00 | 0.00 | 21 | 1018.3 |
| 20260903162725 | 72 | 167 | 7.0 | 10.0 | 0.00 | 0.00 | 0.00 | 23 | 1018.3 |
| 20260903161724 | 71 | 155 | 5.0 | 9.0 | 0.00 | 0.00 | 0.00 | 26 | 1018.4 |
| 20260903160725 | 70 | 147 | 7.0 | 11.0 | 0.00 | 0.00 | 0.00 | 29 | 1018.3 |
| 20260903155725 | 70 | 139 | 5.0 | 9.0 | 0.00 | 0.00 | 0.00 | 30 | 1018.4 |
| 20260903154724 | 70 | 148 | 3.0 | 6.0 | 0.00 | 0.00 | 0.00 | 32 | 1018.4 |
| 20260903153724 | 69 | 153 | 2.0 | 5.0 | 0.00 | 0.00 | 0.00 | 36 | 1018.4 |
| 20260903151823 | 69 | 135 | 2.0 | 3.0 | 0.00 | 0.00 | 0.00 | 37 | 1018.9 |
| 20260903150922 | 70 | 286 | 0.0 | 1.0 | 0.00 | 0.00 | 0.00 | 29 | 1018.8 |
| 20260903150822 | 70 | 270 | 0.0 | 1.0 | 0.00 | 0.00 | 0.00 | 29 | 1018.7 |
| 20260903145822 | 69 | 270 | 0.0 | 0.0 | 0.00 | 0.00 | 0.00 | 27 | 1018.8 |
| 20260903144824 | 67 | 270 | 0.0 | 0.0 | 0.00 | 0.00 | 0.00 | 25 | 1018.8 |
| 20260903143823 | 67 | 315 | 0.0 | 0.0 | 0.00 | 0.00 | 0.00 | 26 | 1018.9 |
| 20260903142923 | 65 | 315 | 0.0 | 0.0 | 0.00 | 0.00 | 0.00 | 25 | 1018.7 |
| 20260903141924 | 63 | 315 | 1.0 | 2.0 | 0.00 | 0.00 | 0.00 | 25 | 1018.7 |
| 20260903141023 | 62 | 315 | 0.0 | 0.0 | 0.00 | 0.00 | 0.00 | 25 | 1018.5 |
| 20260903140924 | 62 | 315 | 0.0 | 0.0 | 0.00 | 0.00 | 0.00 | 25 | 1018.7 |
| 20260903135924 | 61 | 315 | 0.0 | 5.0 | 0.00 | 0.00 | 0.00 | 25 | 1018.7 |
| 20260903135023 | 61 | 315 | 3.0 | 6.0 | 0.00 | 0.00 | 0.00 | 25 | 1018.5 |
| 20260903134122 | 59 | 292 | 4.0 | 5.0 | 0.00 | 0.00 | 0.00 | 26 | 1018.4 |
| 20260903132223 | 58 | 292 | 0.0 | 1.0 | 0.00 | 0.00 | 0.00 | 28 | 1018.2 |
| 20260903131224 | 59 | 292 | 1.0 | 2.0 | 0.00 | 0.00 | 0.00 | 26 | 1018.2 |
| 20260903130225 | 58 | 292 | 1.0 | 2.0 | 0.00 | 0.00 | 0.00 | 29 | 1017.9 |
| 20260903125323 | 56 | 292 | 0.0 | 1.0 | 0.00 | 0.00 | 0.00 | 33 | 1017.8 |
| 20260903124422 | 55 | 292 | 4.0 | 5.0 | 0.00 | 0.00 | 0.00 | 34 | 1017.8 |
| 20260903122426 | 57 | 292 | 0.0 | 0.0 | 0.00 | 0.00 | 0.00 | 31 | 1017.8 |
| 20260903121424 | 56 | 292 | 4.0 | 6.0 | 0.00 | 0.00 | 0.00 | 32 | 1017.7 |
| 20260903120440 | 55 | 292 | 0.0 | 0.0 | 0.00 | 0.00 | 0.00 | 33 | 1017.7 |
| 20260903115423 | 55 | 292 | 0.0 | 0.0 | 0.00 | 0.00 | 0.00 | 34 | 1017.7 |
| 20260903113424 | 57 | 292 | 0.0 | 0.0 | 0.00 | 0.00 | 0.00 | 29 | 1017.7 |
| 20260903112523 | 58 | 292 | 0.0 | 0.0 | 0.00 | 0.00 | 0.00 | 28 | 1017.8 |
| 20260903111523 | 58 | 292 | 0.0 | 0.0 | 0.00 | 0.00 | 0.00 | 27 | 1017.7 |
| 20260903110525 | 59 | 292 | 0.0 | 1.0 | 0.00 | 0.00 | 0.00 | 26 | 1017.7 |
| 20260903105523 | 59 | 292 | 2.0 | 3.0 | 0.00 | 0.00 | 0.00 | 26 | 1017.6 |
| 20260903104524 | 59 | 292 | 3.0 | 5.0 | 0.00 | 0.00 | 0.00 | 26 | 1017.7 |
| 20260903103623 | 61 | 292 | 2.0 | 3.0 | 0.00 | 0.00 | 0.00 | 24 | 1017.6 |
| 20260903102622 | 61 | 292 | 4.0 | 5.0 | 0.00 | 0.00 | 0.00 | 24 | 1017.5 |
| 20260903102522 | 61 | 292 | 3.0 | 5.0 | 0.00 | 0.00 | 0.00 | 24 | 1017.5 |
| 20260903101523 | 61 | 292 | 4.0 | 6.0 | 0.00 | 0.00 | 0.00 | 25 | 1017.5 |
| 20260903100622 | 60 | 292 | 3.0 | 4.0 | 0.00 | 0.00 | 0.00 | 25 | 1017.4 |
| 20260903095625 | 59 | 292 | 6.0 | 9.0 | 0.00 | 0.00 | 0.00 | 27 | 1017.4 |
| 20260903094623 | 60 | 292 | 0.0 | 1.0 | 0.00 | 0.00 | 0.00 | 25 | 1017.4 |
| 20260903093722 | 62 | 292 | 0.0 | 0.0 | 0.00 | 0.00 | 0.00 | 23 | 1017.3 |
| 20260903092724 | 64 | 292 | 0.0 | 0.0 | 0.00 | 0.00 | 0.00 | 20 | 1017.3 |
| 20260903092623 | 64 | 292 | 1.0 | 3.0 | 0.00 | 0.00 | 0.00 | 20 | 1017.2 |
| 20260903091622 | 62 | 292 | 1.0 | 2.0 | 0.00 | 0.00 | 0.00 | 23 | 1017.2 |
| 20260903090641 | 63 | 249 | 1.0 | 2.0 | 0.00 | 0.00 | 0.00 | 21 | 1017.1 |
| 20260903085722 | 64 | 247 | 0.0 | 0.0 | 0.00 | 0.00 | 0.00 | 20 | 1017.0 |
| 20260903084722 | 65 | 247 | 2.0 | 4.0 | 0.00 | 0.00 | 0.00 | 20 | 1017.0 |
| 20260903083724 | 66 | 247 | 5.0 | 6.0 | 0.00 | 0.00 | 0.00 | 19 | 1017.1 |
| 20260903082726 | 67 | 228 | 4.0 | 5.0 | 0.00 | 0.00 | 0.00 | 19 | 1017.1 |
| 20260903081725 | 67 | 223 | 4.0 | 7.0 | 0.00 | 0.00 | 0.00 | 18 | 1017.2 |
| 20260903080724 | 68 | 225 | 4.0 | 6.0 | 0.00 | 0.00 | 0.00 | 17 | 1017.1 |
| 20260903075723 | 68 | 247 | 5.0 | 7.0 | 0.00 | 0.00 | 0.00 | 17 | 1016.9 |
| 20260903074723 | 68 | 232 | 3.0 | 6.0 | 0.00 | 0.00 | 0.00 | 16 | 1016.9 |
| 20260903074623 | 69 | 225 | 3.0 | 5.0 | 0.00 | 0.00 | 0.00 | 17 | 1016.9 |
| 20260903073623 | 69 | 236 | 5.0 | 9.0 | 0.00 | 0.00 | 0.00 | 17 | 1016.9 |
| 20260903072722 | 69 | 225 | 4.0 | 7.0 | 0.00 | 0.00 | 0.00 | 17 | 1016.6 |
| 20260903071724 | 70 | 227 | 3.0 | 4.0 | 0.00 | 0.00 | 0.00 | 15 | 1016.6 |
| 20260903070724 | 71 | 220 | 2.0 | 4.0 | 0.00 | 0.00 | 0.00 | 15 | 1016.5 |
| 20260903064723 | 71 | 209 | 4.0 | 8.0 | 0.00 | 0.00 | 0.00 | 15 | 1016.2 |
| 20260903063722 | 72 | 221 | 5.0 | 7.0 | 0.00 | 0.00 | 0.00 | 14 | 1016.3 |
| 20260903062723 | 72 | 232 | 5.0 | 8.0 | 0.00 | 0.00 | 0.00 | 14 | 1016.1 |
| 20260903061740 | 72 | 231 | 5.0 | 10.0 | 0.00 | 0.00 | 0.00 | 14 | 1016.0 |
| 20260903060824 | 73 | 240 | 6.0 | 9.0 | 0.00 | 0.00 | 0.00 | 13 | 1015.9 |
| 20260903055922 | 74 | 225 | 4.0 | 6.0 | 0.00 | 0.00 | 0.00 | 13 | 1015.8 |
| 20260903054922 | 74 | 248 | 6.0 | 10.0 | 0.00 | 0.00 | 0.00 | 13 | 1015.8 |
| 20260903053923 | 74 | 247 | 3.0 | 5.0 | 0.00 | 0.00 | 0.00 | 13 | 1015.6 |
| 20260903052924 | 75 | 229 | 5.0 | 8.0 | 0.00 | 0.00 | 0.00 | 13 | 1015.7 |